TimeMST,TemperatureF,Dew PointF,Humidity,Sea Level PressureIn,VisibilityMPH,Wind Direction,Wind SpeedMPH,Gust SpeedMPH,PrecipitationIn,Events,Conditions,WindDirDegrees,DateUTC
12:53 AM,12.0,3.9,70,30.18,10.0,ENE,6.9,-,N/A,,Clear,70,2013-02-04 07:53:00
1:53 AM,7.0,1.9,80,30.16,10.0,ENE,8.1,-,N/A,,Clear,70,2013-02-04 08:53:00
3:53 AM,8.1,3.9,83,30.16,10.0,SW,3.5,-,N/A,,Clear,230,2013-02-04 10:53:00
4:53 AM,8.1,3.0,80,30.17,10.0,Calm,Calm,-,N/A,,Clear,0,2013-02-04 11:53:00
5:53 AM,6.1,1.0,80,30.22,10.0,Calm,Calm,-,N/A,,Clear,0,2013-02-04 12:53:00
6:53 AM,8.1,3.0,80,30.20,10.0,Calm,Calm,-,N/A,,Clear,0,2013-02-04 13:53:00
7:53 AM,6.1,1.9,83,30.24,10.0,West,3.5,-,N/A,,Clear,270,2013-02-04 14:53:00
8:53 AM,10.0,5.0,80,30.21,10.0,ESE,4.6,-,N/A,,Clear,120,2013-02-04 15:53:00
9:53 AM,15.1,8.1,74,30.22,10.0,East,4.6,-,N/A,,Clear,100,2013-02-04 16:53:00
10:53 AM,21.9,12.9,68,30.18,10.0,South,4.6,-,N/A,,Clear,170,2013-02-04 17:53:00
11:53 AM,27.0,16.0,63,30.17,10.0,Calm,Calm,-,N/A,,Clear,0,2013-02-04 18:53:00
12:53 PM,30.0,17.1,59,30.12,10.0,Variable,4.6,-,N/A,,Clear,0,2013-02-04 19:53:00
1:53 PM,34.0,19.0,54,30.12,10.0,SW,3.5,-,N/A,,Clear,230,2013-02-04 20:53:00
2:53 PM,35.1,21.9,59,30.11,10.0,NNW,18.4,24.2,N/A,,Clear,340,2013-02-04 21:53:00
3:53 PM,35.1,21.0,57,30.12,10.0,NNW,15.0,-,N/A,,Clear,340,2013-02-04 22:53:00
4:53 PM,32.0,19.9,61,30.13,10.0,NNW,10.4,-,N/A,,Clear,330,2013-02-04 23:53:00
5:53 PM,25.0,16.0,69,30.16,10.0,NE,10.4,-,N/A,,Clear,50,2013-02-05 00:53:00
6:53 PM,23.0,15.1,72,30.17,10.0,North,12.7,-,N/A,,Clear,350,2013-02-05 01:53:00
7:53 PM,21.0,14.0,74,30.20,10.0,NNW,11.5,-,N/A,,Clear,340,2013-02-05 02:53:00
8:53 PM,19.0,12.9,77,30.21,10.0,Calm,Calm,-,N/A,,Clear,0,2013-02-05 03:53:00
9:53 PM,19.0,12.9,77,30.20,10.0,Calm,Calm,-,N/A,,Clear,0,2013-02-05 04:53:00
10:53 PM,14.0,9.0,80,30.19,10.0,Calm,Calm,-,N/A,,Partly Cloudy,0,2013-02-05 05:53:00
11:53 PM,17.1,12.0,81,30.18,10.0,Calm,Calm,-,N/A,,Overcast,0,2013-02-05 06:53:00